CW9443 Weather Reports


Display with metric or nautical units.
time (UTC)temp
F
wind
direction
speed
MPH
gust
MPH
rain 1hr
in
rain 24hr
in
rain mn
in
humidity
%
barometer
mb
20260508193004 70 240 1.0 0.0 0.00 0.00 0.00 68 1014.2
20260508191507 69 240 1.0 0.0 0.00 0.00 0.00 69 1014.3
20260508184609 66 253 1.0 0.0 0.00 0.00 0.00 74 1014.7
20260508183003 66 252 1.0 0.0 0.00 0.00 0.00 75 1014.8
20260508181504 65 253 0.0 0.0 0.00 0.00 0.00 75 1015.0
20260508180100 64 253 0.0 0.0 0.00 0.00 0.00 76 1015.0
20260508174559 61 214 0.0 0.0 0.00 0.00 0.00 82 1015.1
20260508173101 61 214 0.0 0.0 0.00 0.00 0.00 82 1015.2
20260508171556 60 211 0.0 0.0 0.00 0.00 0.00 83 1015.1
20260508170054 60 224 0.0 0.0 0.00 0.00 0.00 84 1015.2
20260508164553 59 223 0.0 0.0 0.00 0.00 0.00 86 1015.1
20260508163033 59 224 0.0 0.0 0.00 0.00 0.00 86 1015.0
20260508161531 58 224 0.0 0.0 0.00 0.00 0.00 87 1015.0
20260508160052 58 223 0.0 0.0 0.00 0.00 0.00 88 1015.0
20260508154528 57 224 0.0 0.0 0.00 0.00 0.00 90 1015.0
20260508153051 57 223 0.0 0.0 0.00 0.00 0.00 91 1015.0
20260508151553 56 224 0.0 0.0 0.00 0.00 0.00 92 1015.0
20260508144519 56 223 0.0 0.0 0.00 0.00 0.00 92 1015.0
20260508143024 56 224 0.0 0.0 0.00 0.00 0.00 92 1015.0
20260508141517 56 223 0.0 0.0 0.00 0.00 0.00 93 1014.8
20260508134559 55 224 0.0 0.0 0.00 0.00 0.00 93 1014.6
20260508133100 54 224 0.0 0.0 0.00 0.00 0.00 93 1014.7
20260508131513 53 224 0.0 0.0 0.00 0.00 0.00 92 1014.5
20260508130016 54 223 0.0 0.0 0.00 0.00 0.00 92 1014.4
20260508124511 54 224 0.0 0.0 0.00 0.00 0.00 91 1014.3
20260508121546 54 224 0.0 0.0 0.00 0.00 0.00 91 1014.1
20260508120014 55 224 0.0 0.0 0.00 0.00 0.00 91 1013.9
20260508114512 55 224 0.0 0.0 0.00 0.00 0.00 91 1013.7
20260508113011 55 224 0.0 0.0 0.00 0.00 0.00 91 1013.8
20260508110031 55 224 0.0 0.0 0.00 0.00 0.00 90 1013.7
20260508104528 55 224 0.0 0.0 0.00 0.00 0.00 90 1013.6
20260508103025 56 224 0.0 0.0 0.00 0.00 0.00 90 1013.6
20260508100038 56 223 0.0 0.0 0.00 0.00 0.00 90 1013.6
20260508094538 56 224 0.0 0.0 0.00 0.00 0.00 90 1013.5
20260508093035 56 224 0.0 0.0 0.00 0.00 0.00 89 1013.5
20260508090040 56 224 0.0 0.0 0.00 0.00 0.00 89 1013.5
20260508084539 56 224 0.0 0.0 0.00 0.00 0.00 89 1013.7
20260508083115 56 224 0.0 0.0 0.00 0.00 0.00 89 1013.9
20260508080100 56 224 0.0 0.0 0.00 0.00 0.00 89 1014.0
20260508074554 56 223 0.0 0.0 0.00 0.00 0.00 88 1014.1
20260508073057 57 224 0.0 0.0 0.00 0.00 0.00 86 1014.1
20260508070018 58 224 0.0 0.0 0.00 0.00 0.00 83 1013.9
20260508064538 59 223 0.0 0.0 0.00 0.00 0.00 82 1014.0
20260508063017 59 224 0.0 0.0 0.00 0.00 0.00 82 1013.9
20260508060020 59 224 0.0 0.0 0.00 0.00 0.00 83 1013.6
20260508054517 59 224 0.0 0.0 0.00 0.00 0.00 83 1013.5
20260508053017 58 224 0.0 0.0 0.00 0.00 0.00 83 1013.6
20260508050025 58 223 0.0 0.0 0.00 0.00 0.00 84 1013.4
20260508044525 58 223 0.0 0.0 0.00 0.00 0.00 84 1013.5
20260508043027 59 224 0.0 0.0 0.00 0.00 0.00 83 1013.4
20260508040029 60 223 0.0 0.0 0.00 0.00 0.00 81 1013.2
20260508034528 60 224 0.0 0.0 0.00 0.00 0.00 80 1013.1
20260508033027 61 224 0.0 0.0 0.00 0.00 0.00 78 1013.0
20260508030119 62 224 0.0 0.0 0.00 0.00 0.00 75 1012.7
20260508024604 63 224 0.0 0.0 0.00 0.00 0.00 72 1012.6
20260508023055 64 224 0.0 0.0 0.00 0.00 0.00 71 1012.4
20260508020025 66 224 0.0 0.0 0.00 0.00 0.00 67 1012.5
20260508014532 66 224 0.0 0.0 0.00 0.00 0.00 67 1012.4
20260508013026 68 224 0.0 0.0 0.00 0.00 0.00 64 1012.4
20260508010010 70 209 0.0 0.0 0.00 0.00 0.00 61 1012.3
20260508004510 70 215 0.0 0.0 0.00 0.00 0.00 61 1012.4
20260508003032 70 211 0.0 0.0 0.00 0.00 0.00 61 1012.3
20260508001522 72 238 0.0 0.0 0.00 0.00 0.00 59 1012.4
20260507234520 73 241 0.0 0.0 0.00 0.00 0.00 57 1012.4
20260507233017 74 243 0.0 0.0 0.00 0.00 0.00 57 1012.5
20260507231516 73 202 0.0 0.0 0.00 0.00 0.00 56 1012.5
20260507224519 74 212 0.0 0.0 0.00 0.00 0.00 55 1012.7
20260507223021 74 217 0.0 0.0 0.00 0.00 0.00 54 1012.8
20260507221516 74 244 0.0 0.0 0.00 0.00 0.00 55 1013.0
20260507214607 73 216 1.0 0.0 0.00 0.00 0.00 56 1013.4
20260507213106 74 229 1.0 0.0 0.00 0.00 0.00 55 1013.5
20260507211551 73 219 1.0 0.0 0.00 0.00 0.00 57 1013.5
20260507210054 73 184 2.0 0.0 0.00 0.00 0.00 57 1013.7
20260507204602 74 231 2.0 0.0 0.00 0.00 0.00 58 1013.7
20260507203054 74 241 1.0 0.0 0.00 0.00 0.00 58 1014.0
20260507201553 74 195 3.0 0.0 0.00 0.00 0.00 59 1014.0
20260507200051 73 198 3.0 0.0 0.00 0.00 0.00 59 1014.1
20260507194559 74 211 3.0 0.0 0.00 0.00 0.00 58 1014.2